UAE420 OMDB-YPPH

Flight info

Callsign UAE420
Flight time N/A
Altitude 31000
Route ANVIX L223 TARDI N629 GIDAN P570 KITAL L894 BIBGO DCT LAVOX/N0505F330 DCT KADAP DCT 0500S08730E DCT BEBIM/N0497F350 DCT 15S100E 18S105E DCT WONSA DCT CAR B469 TOPIR/N0482F360 L514 AVPAL Q38 JULIM
Aircraft B77W/H-SDE1E2E3FGHIJ2J3J4J5M1RWXY/LB1D1

Departure

Time N/A
Airport Dubai International Airport (OMDB)

Arrival

Time 2026-05-04 06:44
Airport Perth International Airport (YPPH)
Time Latitude Longitude Altitude Speed Heading
2026-05-04 05:51 -27.08076 115.37936 35021 ft 496 kts 153°
2026-05-04 05:51 -27.10928 115.40204 35027 ft 495 kts 153°
2026-05-04 05:52 -27.16573 115.44694 35031 ft 496 kts 153°
2026-05-04 05:52 -27.22185 115.49166 35031 ft 495 kts 153°
2026-05-04 05:54 -27.45164 115.65918 35016 ft 485 kts 161°
2026-05-04 05:55 -27.51211 115.69371 35013 ft 486 kts 161°
2026-05-04 05:55 -27.57252 115.72831 35016 ft 485 kts 161°
2026-05-04 05:56 -27.63276 115.76287 35018 ft 484 kts 161°
2026-05-04 05:56 -27.69266 115.79730 35021 ft 484 kts 161°
2026-05-04 05:57 -27.75297 115.83201 35023 ft 484 kts 161°
2026-05-04 05:57 -27.81318 115.86671 35026 ft 485 kts 161°
2026-05-04 05:58 -27.87358 115.90157 35027 ft 484 kts 161°
2026-05-04 05:58 -27.93316 115.93600 35028 ft 484 kts 161°
2026-05-04 05:59 -27.99313 115.97070 35027 ft 484 kts 161°
2026-05-04 05:59 -28.05293 116.00535 35028 ft 484 kts 161°
2026-05-04 06:00 -28.11341 116.04043 35035 ft 483 kts 161°
2026-05-04 06:00 -28.17330 116.07521 35038 ft 484 kts 161°
2026-05-04 06:01 -28.23327 116.11008 35039 ft 483 kts 161°
2026-05-04 06:03 -28.47311 116.25002 35041 ft 482 kts 161°
2026-05-04 06:05 -28.74328 116.40849 35041 ft 483 kts 161°
2026-05-04 06:06 -28.80322 116.44379 35041 ft 482 kts 161°
2026-05-04 06:06 -28.86275 116.47887 35040 ft 483 kts 161°
2026-05-04 06:07 -28.92234 116.51405 35041 ft 483 kts 161°
2026-05-04 06:07 -28.98236 116.54951 35043 ft 484 kts 161°
2026-05-04 06:08 -29.04195 116.58478 35043 ft 483 kts 161°
2026-05-04 06:08 -29.10156 116.62011 35044 ft 483 kts 161°
2026-05-04 06:09 -29.16233 116.65261 35048 ft 471 kts 170°
2026-05-04 06:11 -29.41357 116.66242 35035 ft 449 kts 189°
2026-05-04 06:13 -29.66360 116.65583 35032 ft 448 kts 189°
2026-05-04 06:14 -29.88320 116.64993 35030 ft 449 kts 189°
2026-05-04 06:15 -29.94585 116.64825 35028 ft 449 kts 189°
2026-05-04 06:15 -30.00831 116.64657 35027 ft 449 kts 189°
2026-05-04 06:16 -30.07115 116.64487 35024 ft 448 kts 189°
2026-05-04 06:16 -30.13353 116.64319 35033 ft 448 kts 189°
2026-05-04 06:17 -30.19613 116.64149 35030 ft 449 kts 189°
2026-05-04 06:17 -30.25835 116.63981 35027 ft 448 kts 189°
2026-05-04 06:18 -30.32087 116.63811 35025 ft 447 kts 188°
2026-05-04 06:20 -30.57029 116.62419 35017 ft 435 kts 202°
2026-05-04 06:21 -30.71312 116.56971 35016 ft 423 kts 205°
2026-05-04 06:21 -30.74105 116.55888 34854 ft 418 kts 205°
2026-05-04 06:22 -30.76827 116.54829 34181 ft 419 kts 205°
2026-05-04 06:22 -30.79660 116.53719 33411 ft 440 kts 205°
2026-05-04 06:25 -31.17211 116.39026 26052 ft 423 kts 203°
2026-05-04 06:25 -31.19962 116.37945 25545 ft 421 kts 203°
2026-05-04 06:26 -31.22736 116.36853 25026 ft 419 kts 203°
2026-05-04 06:26 -31.25493 116.35767 24506 ft 416 kts 203°
2026-05-04 06:26 -31.28238 116.34686 23991 ft 414 kts 203°
2026-05-04 06:26 -31.30960 116.33613 23484 ft 413 kts 203°
2026-05-04 06:27 -31.41773 116.29227 21141 ft 406 kts 209°
2026-05-04 06:28 -31.44239 116.27730 20620 ft 402 kts 212°
2026-05-04 06:28 -31.46701 116.26160 20086 ft 400 kts 212°
2026-05-04 06:28 -31.49118 116.24616 19560 ft 398 kts 212°
2026-05-04 06:28 -31.51549 116.23062 19029 ft 396 kts 212°
2026-05-04 06:29 -31.53941 116.21531 18502 ft 394 kts 212°
2026-05-04 06:29 -31.56356 116.19985 17969 ft 392 kts 212°
2026-05-04 06:29 -31.58720 116.18470 17444 ft 390 kts 212°
2026-05-04 06:29 -31.61107 116.16940 16902 ft 388 kts 211°
2026-05-04 06:30 -31.63478 116.15419 16373 ft 386 kts 211°
2026-05-04 06:30 -31.65799 116.13930 15859 ft 384 kts 211°
2026-05-04 06:30 -31.68139 116.12427 15337 ft 382 kts 211°
2026-05-04 06:30 -31.70466 116.10931 14814 ft 380 kts 211°
2026-05-04 06:31 -31.72758 116.09457 14294 ft 378 kts 210°
2026-05-04 06:31 -31.75152 116.08122 13768 ft 378 kts 201°
2026-05-04 06:31 -31.77691 116.07343 13250 ft 378 kts 192°
2026-05-04 06:31 -31.80268 116.06863 12723 ft 377 kts 185°
2026-05-04 06:32 -31.82886 116.06949 12193 ft 377 kts 173°
2026-05-04 06:33 -31.99229 116.14355 10156 ft 326 kts 160°
2026-05-04 06:34 -32.01332 116.15253 10020 ft 316 kts 160°
2026-05-04 06:34 -32.03371 116.16135 9890 ft 306 kts 159°
2026-05-04 06:34 -32.05345 116.16999 9692 ft 299 kts 160°
2026-05-04 06:34 -32.07371 116.17456 9256 ft 301 kts 182°
2026-05-04 06:35 -32.09460 116.17156 8852 ft 302 kts 190°
2026-05-04 06:36 -32.19711 116.08244 6247 ft 290 kts 269°
2026-05-04 06:37 -32.19783 116.05860 5895 ft 287 kts 270°
2026-05-04 06:37 -32.19810 116.03542 5561 ft 282 kts 275°
2026-05-04 06:37 -32.19501 116.01321 5396 ft 272 kts 285°
2026-05-04 06:37 -32.19042 115.99152 5033 ft 274 kts 287°
2026-05-04 06:38 -32.18559 115.96960 4658 ft 276 kts 287°
2026-05-04 06:38 -32.18074 115.94767 4292 ft 275 kts 289°
2026-05-04 06:40 -32.08760 115.92229 2616 ft 180 kts 18°
2026-05-04 06:40 -32.07551 115.92583 2386 ft 176 kts 18°
2026-05-04 06:40 -32.06377 115.92924 2162 ft 171 kts 18°
2026-05-04 06:40 -32.05227 115.93259 1946 ft 169 kts 18°
2026-05-04 06:41 -32.04102 115.93586 1728 ft 167 kts 18°
2026-05-04 06:41 -32.02999 115.93905 1520 ft 155 kts 18°
2026-05-04 06:41 -32.01953 115.94211 1323 ft 156 kts 18°
2026-05-04 06:41 -32.00901 115.94511 1116 ft 153 kts 18°
2026-05-04 06:42 -31.99866 115.94800 921 ft 154 kts 18°
2026-05-04 06:42 -31.98831 115.95106 693 ft 154 kts 19°
2026-05-04 06:42 -31.97791 115.95409 480 ft 152 kts 18°
2026-05-04 06:44 -31.93459 115.96749 82 ft 18 kts 60°
2026-05-04 06:44 -31.93409 115.96854 81 ft 11 kts 59°
2026-05-04 06:44 -31.93368 115.96936 80 ft 11 kts 63°
2026-05-04 06:45 -31.93371 115.97015 80 ft 9 kts 129°
2026-05-04 06:45 -31.93425 115.97060 81 ft 11 kts 147°
2026-05-04 06:45 -31.93499 115.97116 83 ft 14 kts 148°
2026-05-04 06:45 -31.93593 115.97180 85 ft 16 kts 149°
2026-05-04 06:46 -31.93697 115.97253 88 ft 18 kts 149°
2026-05-04 06:46 -31.93798 115.97324 92 ft 14 kts 148°
2026-05-04 06:46 -31.93878 115.97352 94 ft 10 kts 194°
2026-05-04 06:46 -31.93927 115.97296 94 ft 10 kts 243°
2026-05-04 06:48 -31.94031 115.97308 96 ft 0 kts 152°